Location: Brno
(49.2000°N, 16.6330°E)
Time: 20:40:07
(UTC+02:00)

CARTOSAT-1 - Visible Passes

Search period start: 21 May 2018 00:00
Search period end: 31 May 2018 00:00
Orbit: 616 x 620 km, 97.8° (Epoch: 21 May)

Date Brightness Start Highest point End Pass type
(mag) Time Alt. Az. Time Alt. Az. Time Alt. Az.
21 May 4.2 22:03:19 16° SE 22:06:26 42° ENE 22:10:31 10° N visible
21 May 5.4 23:40:26 15° SW 23:42:42 23° W 23:46:08 10° NW visible
22 May 3.7 22:20:10 19° SSE 22:23:06 62° ENE 22:27:23 10° N visible
22 May 5.8 23:57:18 11° WSW 23:59:36 16° W 00:02:17 10° NW visible
23 May 3.5 22:37:02 22° SSE 22:39:48 89° ENE 22:44:09 10° NNW visible
24 May 6.1 00:15:25 10° WSW 00:16:32 11° W 00:17:40 10° WNW visible
24 May 5.4 21:18:03 10° ESE 21:20:54 18° ENE 21:23:46 10° NNE visible
24 May 3.8 22:53:53 22° S 22:56:32 62° WSW 23:00:51 10° NNW visible
25 May 5.0 21:34:00 10° ESE 21:37:26 24° ENE 21:40:54 10° N visible
25 May 4.4 23:10:44 20° SSW 23:13:19 42° W 23:17:27 10° NNW visible
26 May 4.6 21:50:27 11° SE 21:54:02 33° ENE 21:57:54 10° N visible
26 May 5.0 23:27:34 17° SW 23:30:07 29° W 23:33:56 10° NNW visible
27 May 4.1 22:07:17 15° SE 22:10:39 47° ENE 22:14:48 10° N visible
27 May 5.5 23:44:25 13° SW 23:46:58 21° W 23:50:15 10° NW visible
28 May 3.6 22:24:08 18° SSE 22:27:18 68° ENE 22:31:36 10° N visible
29 May 5.9 00:01:28 10° WSW 00:03:51 14° W 00:06:15 10° NW visible
29 May 3.6 22:40:58 19° S 22:43:59 83° WSW 22:48:20 10° NNW visible
30 May 5.4 21:21:58 10° ESE 21:25:00 19° ENE 21:28:03 10° NNE visible
30 May 4.0 22:57:48 19° S 23:00:42 56° W 23:04:59 10° NNW visible
